| time (UTC) | temp C | wind direction | speed KPH | gust KPH | rain 1hr cm | rain 24hr cm | rain mn cm | humidity % | barometer mb |
| 20260510132126 | 10 | 223 | 4.8 | 14.5 | 0.00 | 0.03 | 0.03 | 45 | 1036.5 |
| 20260510131624 | 10 | 287 | 3.2 | 9.7 | 0.00 | 0.03 | 0.03 | 47 | 1036.7 |
| 20260510131121 | 10 | 275 | 14.5 | 14.5 | 0.00 | 0.03 | 0.03 | 47 | 1036.8 |
| 20260510130617 | 10 | 274 | 9.7 | 11.3 | 0.00 | 0.03 | 0.03 | 49 | 1036.5 |
| 20260510130115 | 10 | 267 | 6.4 | 11.3 | 0.00 | 0.03 | 0.03 | 50 | 1036.6 |
| 20260510125611 | 10 | 270 | 4.8 | 12.9 | 0.00 | 0.03 | 0.03 | 51 | 1036.6 |
| 20260510125108 | 10 | 308 | 1.6 | 11.3 | 0.00 | 0.03 | 0.03 | 53 | 1036.5 |
| 20260510124604 | 10 | 264 | 8.0 | 9.7 | 0.00 | 0.03 | 0.03 | 54 | 1036.6 |
| 20260510124101 | 9 | 292 | 4.8 | 14.5 | 0.00 | 0.03 | 0.03 | 53 | 1036.3 |
| 20260510123556 | 9 | 265 | 3.2 | 17.7 | 0.00 | 0.03 | 0.03 | 55 | 1036.4 |
| 20260510123053 | 8 | 278 | 3.2 | 14.5 | 0.00 | 0.03 | 0.03 | 55 | 1036.3 |
| 20260510122548 | 8 | 319 | 4.8 | 9.7 | 0.00 | 0.03 | 0.03 | 55 | 1036.2 |
| 20260510122045 | 8 | 25 | 6.4 | 16.1 | 0.00 | 0.03 | 0.03 | 56 | 1036.2 |
| 20260510121542 | 8 | 281 | 4.8 | 9.7 | 0.00 | 0.03 | 0.03 | 58 | 1036.2 |
| 20260510121039 | 8 | 316 | 4.8 | 9.7 | 0.00 | 0.03 | 0.03 | 58 | 1036.0 |
| 20260510120537 | 8 | 3 | 4.8 | 9.7 | 0.00 | 0.03 | 0.03 | 59 | 1036.0 |
| 20260510120032 | 7 | 314 | 8.0 | 9.7 | 0.00 | 0.03 | 0.03 | 59 | 1035.8 |
| 20260510115529 | 7 | 313 | 9.7 | 9.7 | 0.00 | 0.03 | 0.03 | 60 | 1035.7 |
| 20260510115026 | 7 | 342 | 6.4 | 12.9 | 0.00 | 0.03 | 0.03 | 61 | 1035.8 |
| 20260510114522 | 7 | 307 | 11.3 | 17.7 | 0.00 | 0.03 | 0.03 | 61 | 1035.6 |
| 20260510114018 | 7 | 318 | 9.7 | 16.1 | 0.00 | 0.03 | 0.03 | 62 | 1035.7 |
| 20260510113513 | 7 | 4 | 4.8 | 11.3 | 0.00 | 0.03 | 0.03 | 62 | 1035.4 |
| 20260510113011 | 6 | 283 | 9.7 | 17.7 | 0.00 | 0.03 | 0.03 | 62 | 1035.5 |
| 20260510112508 | 6 | 282 | 9.7 | 11.3 | 0.00 | 0.03 | 0.03 | 63 | 1035.5 |
| 20260510112004 | 6 | 342 | 3.2 | 12.9 | 0.00 | 0.03 | 0.03 | 64 | 1035.3 |
| 20260510111501 | 6 | 307 | 6.4 | 11.3 | 0.00 | 0.03 | 0.03 | 64 | 1035.4 |
| 20260510110957 | 5 | 278 | 11.3 | 11.3 | 0.00 | 0.03 | 0.03 | 66 | 1035.3 |
| 20260510110453 | 5 | 117 | 3.2 | 6.4 | 0.00 | 0.03 | 0.03 | 67 | 1035.0 |
| 20260510105949 | 5 | 269 | 3.2 | 16.1 | 0.00 | 0.03 | 0.03 | 67 | 1035.0 |
| 20260510105444 | 5 | 309 | 3.2 | 11.3 | 0.00 | 0.03 | 0.03 | 67 | 1034.9 |
| 20260510104940 | 5 | 212 | 3.2 | 6.4 | 0.00 | 0.03 | 0.03 | 68 | 1034.8 |
| 20260510104437 | 5 | 50 | 1.6 | 8.0 | 0.00 | 0.03 | 0.03 | 68 | 1034.6 |
| 20260510103933 | 5 | 240 | 4.8 | 4.8 | 0.00 | 0.03 | 0.03 | 68 | 1034.4 |
| 20260510103431 | 5 | 45 | 3.2 | 8.0 | 0.00 | 0.03 | 0.03 | 68 | 1034.2 |
| 20260510102926 | 4 | 42 | 4.8 | 9.7 | 0.00 | 0.03 | 0.03 | 69 | 1034.4 |
| 20260510102422 | 4 | 158 | 0.0 | 6.4 | 0.00 | 0.03 | 0.03 | 70 | 1034.1 |
| 20260510101919 | 4 | 284 | 1.6 | 4.8 | 0.00 | 0.03 | 0.03 | 70 | 1034.0 |
| 20260510101417 | 4 | 290 | 9.7 | 9.7 | 0.00 | 0.03 | 0.03 | 70 | 1033.9 |
| 20260510100914 | 4 | 277 | 3.2 | 6.4 | 0.00 | 0.03 | 0.03 | 71 | 1033.8 |
| 20260510100411 | 4 | 296 | 0.0 | 6.4 | 0.00 | 0.03 | 0.03 | 71 | 1033.7 |
| 20260510095907 | 4 | 154 | 0.0 | 3.2 | 0.00 | 0.03 | 0.03 | 71 | 1033.6 |
| 20260510095402 | 4 | 269 | 4.8 | 4.8 | 0.00 | 0.03 | 0.03 | 71 | 1033.6 |
| 20260510094856 | 4 | 298 | 3.2 | 3.2 | 0.00 | 0.03 | 0.03 | 71 | 1033.6 |
| 20260510094352 | 4 | 279 | 1.6 | 6.4 | 0.00 | 0.03 | 0.03 | 71 | 1033.3 |
| 20260510093848 | 4 | 55 | 0.0 | 9.7 | 0.00 | 0.03 | 0.03 | 71 | 1033.4 |
| 20260510093344 | 4 | 328 | 0.0 | 6.4 | 0.00 | 0.03 | 0.03 | 70 | 1033.2 |
| 20260510092840 | 4 | 307 | 3.2 | 6.4 | 0.00 | 0.03 | 0.03 | 70 | 1033.4 |
| 20260510092337 | 4 | 219 | 3.2 | 4.8 | 0.00 | 0.03 | 0.03 | 70 | 1033.2 |
| 20260510091832 | 4 | 288 | 1.6 | 3.2 | 0.00 | 0.03 | 0.03 | 70 | 1033.1 |
| 20260510091329 | 4 | 31 | 0.0 | 3.2 | 0.00 | 0.03 | 0.03 | 70 | 1033.0 |
| 20260510090826 | 5 | 164 | 0.0 | 3.2 | 0.00 | 0.03 | 0.03 | 70 | 1032.8 |
| 20260510090323 | 5 | 81 | 0.0 | 4.8 | 0.00 | 0.03 | 0.03 | 70 | 1032.8 |
| 20260510085818 | 5 | 16 | 1.6 | 4.8 | 0.00 | 0.03 | 0.03 | 69 | 1032.6 |
| 20260510085313 | 5 | 277 | 4.8 | 4.8 | 0.00 | 0.03 | 0.03 | 69 | 1032.7 |
| 20260510084809 | 5 | 198 | 1.6 | 8.0 | 0.00 | 0.03 | 0.03 | 69 | 1032.4 |
| 20260510084306 | 5 | 355 | 4.8 | 4.8 | 0.00 | 0.03 | 0.03 | 69 | 1032.7 |
| 20260510083803 | 5 | 313 | 3.2 | 6.4 | 0.00 | 0.03 | 0.03 | 68 | 1032.6 |
| 20260510083300 | 5 | 306 | 3.2 | 6.4 | 0.00 | 0.03 | 0.03 | 68 | 1032.7 |
| 20260510082755 | 5 | 257 | 4.8 | 4.8 | 0.00 | 0.03 | 0.03 | 68 | 1032.2 |
| 20260510082252 | 5 | 259 | 3.2 | 6.4 | 0.00 | 0.03 | 0.03 | 68 | 1032.4 |
| 20260510081750 | 5 | 273 | 4.8 | 4.8 | 0.00 | 0.03 | 0.03 | 68 | 1032.4 |
| 20260510081247 | 5 | 280 | 6.4 | 6.4 | 0.00 | 0.03 | 0.03 | 68 | 1032.4 |
| 20260510080743 | 5 | 43 | 3.2 | 4.8 | 0.00 | 0.03 | 0.03 | 68 | 1032.4 |
| 20260510080238 | 5 | 290 | 3.2 | 6.4 | 0.00 | 0.03 | 0.03 | 67 | 1032.4 |
| 20260510075735 | 6 | 288 | 3.2 | 4.8 | 0.00 | 0.03 | 0.03 | 67 | 1032.2 |
| 20260510075233 | 6 | 228 | 3.2 | 8.0 | 0.00 | 0.03 | 0.03 | 66 | 1032.2 |
| 20260510074730 | 6 | 281 | 4.8 | 8.0 | 0.00 | 0.03 | 0.03 | 65 | 1032.1 |
| 20260510074226 | 6 | 326 | 4.8 | 6.4 | 0.00 | 0.03 | 0.03 | 65 | 1032.1 |
| 20260510073722 | 6 | 291 | 6.4 | 8.0 | 0.00 | 0.03 | 0.03 | 65 | 1031.9 |
| 20260510073219 | 6 | 15 | 3.2 | 6.4 | 0.00 | 0.03 | 0.03 | 65 | 1031.9 |
| 20260510072714 | 6 | 325 | 4.8 | 9.7 | 0.00 | 0.03 | 0.03 | 64 | 1031.8 |
| 20260510072211 | 6 | 323 | 6.4 | 9.7 | 0.00 | 0.03 | 0.03 | 64 | 1031.9 |
| 20260510071708 | 7 | 43 | 3.2 | 6.4 | 0.00 | 0.03 | 0.03 | 63 | 1031.9 |
| 20260510071205 | 7 | 338 | 4.8 | 9.7 | 0.00 | 0.03 | 0.03 | 62 | 1031.8 |
| 20260510070702 | 7 | 347 | 6.4 | 9.7 | 0.00 | 0.03 | 0.03 | 61 | 1031.7 |
| 20260510070200 | 7 | 335 | 8.0 | 12.9 | 0.00 | 0.03 | 0.03 | 61 | 1031.7 |
| 20260510065700 | 7 | 356 | 8.0 | 12.9 | 0.00 | 0.03 | 0.03 | 59 | 1031.8 |
| 20260510065156 | 8 | 305 | 9.7 | 11.3 | 0.00 | 0.03 | 0.03 | 59 | 1031.7 |
| 20260510064653 | 8 | 313 | 8.0 | 11.3 | 0.00 | 0.03 | 0.03 | 59 | 1031.5 |
| 20260510064150 | 8 | 292 | 6.4 | 9.7 | 0.00 | 0.03 | 0.03 | 58 | 1031.5 |
| 20260510063647 | 8 | 325 | 9.7 | 14.5 | 0.00 | 0.03 | 0.03 | 57 | 1031.4 |
| 20260510063143 | 8 | 303 | 11.3 | 14.5 | 0.00 | 0.03 | 0.03 | 56 | 1031.4 |
| 20260510062640 | 8 | 348 | 8.0 | 16.1 | 0.00 | 0.03 | 0.03 | 58 | 1031.4 |
| 20260510062136 | 8 | 6 | 6.4 | 14.5 | 0.00 | 0.03 | 0.03 | 58 | 1031.2 |
| 20260510061631 | 8 | 12 | 6.4 | 11.3 | 0.00 | 0.03 | 0.03 | 59 | 1031.3 |
| 20260510061129 | 8 | 348 | 8.0 | 9.7 | 0.00 | 0.03 | 0.03 | 59 | 1031.1 |
| 20260510060625 | 8 | 358 | 6.4 | 11.3 | 0.00 | 0.03 | 0.03 | 60 | 1031.4 |
| 20260510060121 | 8 | 356 | 4.8 | 9.7 | 0.00 | 0.03 | 0.03 | 60 | 1031.0 |
| 20260510055618 | 8 | 328 | 4.8 | 9.7 | 0.00 | 0.03 | 0.03 | 60 | 1031.1 |
| 20260510055116 | 8 | 341 | 4.8 | 9.7 | 0.00 | 0.03 | 0.03 | 61 | 1030.8 |
| 20260510054611 | 8 | 0 | 4.8 | 11.3 | 0.00 | 0.03 | 0.03 | 60 | 1031.0 |
| 20260510054106 | 9 | 357 | 6.4 | 9.7 | 0.00 | 0.03 | 0.03 | 61 | 1030.9 |
| 20260510053601 | 9 | 7 | 4.8 | 11.3 | 0.00 | 0.03 | 0.03 | 61 | 1030.6 |
| 20260510053058 | 9 | 357 | 6.4 | 12.9 | 0.00 | 0.03 | 0.03 | 63 | 1030.5 |
| 20260510052554 | 9 | 348 | 3.2 | 8.0 | 0.00 | 0.03 | 0.03 | 64 | 1030.8 |
| 20260510052050 | 9 | 339 | 6.4 | 9.7 | 0.05 | 0.03 | 0.03 | 64 | 1030.6 |
| 20260510051546 | 9 | 343 | 4.8 | 9.7 | 0.05 | 0.03 | 0.03 | 64 | 1030.8 |
| 20260510051042 | 9 | 344 | 3.2 | 6.4 | 0.05 | 0.00 | 0.00 | 65 | 1030.5 |
| 20260510050539 | 9 | 336 | 6.4 | 6.4 | 0.05 | 0.00 | 0.00 | 63 | 1030.6 |
| 20260510050036 | 9 | 327 | 3.2 | 9.7 | 0.00 | 0.00 | 0.00 | 63 | 1030.9 |
| 20260510045534 | 9 | 318 | 6.4 | 8.0 | 0.00 | 0.00 | 0.00 | 63 | 1030.7 |
| 20260510045029 | 9 | 356 | 4.8 | 9.7 | 0.00 | 0.00 | 0.00 | 65 | 1030.6 |
| 20260510044526 | 10 | 349 | 6.4 | 8.0 | 0.00 | 0.00 | 0.00 | 66 | 1030.4 |
| 20260510044024 | 10 | 345 | 6.4 | 9.7 | 0.00 | 0.00 | 0.00 | 64 | 1030.1 |
| 20260510043519 | 10 | 347 | 4.8 | 6.4 | 0.00 | 0.00 | 0.00 | 63 | 1030.3 |
| 20260510043015 | 10 | 326 | 4.8 | 6.4 | 0.00 | 0.00 | 0.00 | 63 | 1030.4 |
| 20260510042509 | 10 | 318 | 6.4 | 6.4 | 0.00 | 0.00 | 0.00 | 63 | 1030.1 |
| 20260510042004 | 10 | 344 | 3.2 | 6.4 | 0.00 | 0.00 | 0.00 | 64 | 1030.1 |
| 20260510041502 | 10 | 347 | 4.8 | 6.4 | 0.00 | 0.00 | 0.00 | 64 | 1029.9 |
| 20260510040959 | 10 | 347 | 4.8 | 8.0 | 0.00 | 0.00 | 0.00 | 62 | 1030.0 |
| 20260510040455 | 10 | 7 | 4.8 | 8.0 | 0.00 | 0.00 | 0.00 | 63 | 1029.7 |
| 20260510035951 | 10 | 29 | 0.0 | 9.7 | 0.00 | 0.33 | 0.33 | 64 | 1029.5 |
| 20260510035448 | 10 | 359 | 6.4 | 12.9 | 0.00 | 0.33 | 0.33 | 65 | 1029.8 |
| 20260510034947 | 9 | 328 | 6.4 | 8.0 | 0.00 | 0.33 | 0.33 | 67 | 1029.8 |
| 20260510034447 | 9 | 346 | 4.8 | 4.8 | 0.00 | 0.33 | 0.33 | 68 | 1029.6 |
| 20260510033943 | 9 | 349 | 3.2 | 4.8 | 0.00 | 0.33 | 0.33 | 68 | 1029.5 |
| 20260510033439 | 10 | 345 | 3.2 | 6.4 | 0.00 | 0.33 | 0.33 | 67 | 1029.4 |
| 20260510032937 | 10 | 30 | 3.2 | 4.8 | 0.00 | 0.33 | 0.33 | 66 | 1029.4 |
| 20260510032434 | 10 | 309 | 3.2 | 4.8 | 0.00 | 0.33 | 0.33 | 66 | 1029.2 |
| 20260510031933 | 10 | 306 | 3.2 | 4.8 | 0.00 | 0.33 | 0.33 | 65 | 1029.2 |
| 20260510031429 | 10 | 32 | 3.2 | 4.8 | 0.00 | 0.33 | 0.33 | 64 | 1029.2 |
| 20260510030925 | 10 | 47 | 0.0 | 6.4 | 0.00 | 0.33 | 0.33 | 63 | 1029.1 |
| 20260510030421 | 10 | 73 | 3.2 | 9.7 | 0.00 | 0.33 | 0.33 | 63 | 1029.1 |
| 20260510025919 | 11 | 101 | 0.0 | 4.8 | 0.00 | 0.33 | 0.33 | 64 | 1029.3 |
| 20260510025416 | 11 | 356 | 0.0 | 4.8 | 0.00 | 0.33 | 0.33 | 64 | 1029.4 |
| 20260510024913 | 11 | 263 | 4.8 | 6.4 | 0.00 | 0.33 | 0.33 | 66 | 1029.3 |
| 20260510024409 | 11 | 162 | 3.2 | 3.2 | 0.00 | 0.33 | 0.33 | 66 | 1029.2 |
| 20260510023905 | 11 | 125 | 0.0 | 6.4 | 0.00 | 0.33 | 0.33 | 67 | 1029.0 |
| 20260510023402 | 11 | 148 | 0.0 | 14.5 | 0.00 | 0.33 | 0.33 | 68 | 1029.2 |
| 20260510022859 | 11 | 327 | 1.6 | 6.4 | 0.00 | 0.33 | 0.33 | 69 | 1029.2 |
| 20260510022358 | 12 | 10 | 1.6 | 9.7 | 0.00 | 0.33 | 0.33 | 71 | 1029.0 |
| 20260510021857 | 12 | 100 | 4.8 | 6.4 | 0.00 | 0.33 | 0.33 | 72 | 1028.8 |
| 20260510021355 | 12 | 232 | 3.2 | 6.4 | 0.00 | 0.33 | 0.33 | 78 | 1028.9 |
| 20260510020852 | 12 | 93 | 3.2 | 9.7 | 0.00 | 0.33 | 0.33 | 83 | 1028.8 |
| 20260510020352 | 11 | 235 | 1.6 | 11.3 | 0.05 | 0.33 | 0.33 | 86 | 1028.4 |
| 20260510015848 | 11 | 273 | 3.2 | 6.4 | 0.00 | 0.33 | 0.33 | 87 | 1028.3 |
| 20260510015344 | 11 | 319 | 0.0 | 6.4 | 0.00 | 0.33 | 0.33 | 87 | 1028.1 |
| 20260510014839 | 11 | 243 | 0.0 | 3.2 | 0.00 | 0.33 | 0.33 | 87 | 1028.3 |
| 20260510014337 | 11 | 294 | 3.2 | 6.4 | 0.00 | 0.33 | 0.33 | 88 | 1027.9 |
| 20260510013833 | 11 | 118 | 0.0 | 4.8 | 0.00 | 0.33 | 0.33 | 88 | 1027.9 |
| 20260510013329 | 11 | 256 | 0.0 | 4.8 | 0.00 | 0.33 | 0.33 | 88 | 1027.7 |
| 20260510012824 | 11 | 296 | 0.0 | 6.4 | 0.00 | 0.33 | 0.33 | 88 | 1027.4 |
| 20260510012323 | 11 | 254 | 3.2 | 3.2 | 0.00 | 0.33 | 0.33 | 88 | 1027.4 |
| 20260510011818 | 11 | 249 | 0.0 | 3.2 | 0.00 | 0.33 | 0.33 | 88 | 1027.1 |
| 20260510011314 | 11 | 170 | 0.0 | 4.8 | 0.00 | 0.33 | 0.33 | 88 | 1027.1 |
| 20260510010811 | 11 | 272 | 1.6 | 3.2 | 0.00 | 0.33 | 0.33 | 88 | 1026.9 |
| 20260510010308 | 11 | 225 | 3.2 | 4.8 | 0.00 | 0.33 | 0.33 | 88 | 1026.6 |
| 20260510005805 | 11 | 239 | 0.0 | 6.4 | 0.00 | 0.33 | 0.33 | 87 | 1026.5 |
| 20260510005300 | 11 | 257 | 3.2 | 4.8 | 0.00 | 0.33 | 0.33 | 86 | 1026.3 |
| 20260510004759 | 11 | 32 | 1.6 | 4.8 | 0.00 | 0.33 | 0.33 | 86 | 1026.3 |
| 20260510004256 | 11 | 293 | 3.2 | 8.0 | 0.00 | 0.33 | 0.33 | 86 | 1026.4 |
| 20260510003753 | 12 | 242 | 3.2 | 4.8 | 0.00 | 0.33 | 0.33 | 85 | 1026.4 |
| 20260510003250 | 12 | 258 | 4.8 | 6.4 | 0.00 | 0.33 | 0.33 | 85 | 1026.2 |
| 20260510002748 | 12 | 254 | 0.0 | 6.4 | 0.00 | 0.33 | 0.33 | 85 | 1026.2 |
| 20260510002246 | 12 | 323 | 1.6 | 6.4 | 0.00 | 0.33 | 0.33 | 84 | 1026.1 |
| 20260510001743 | 12 | 271 | 3.2 | 6.4 | 0.00 | 0.33 | 0.33 | 84 | 1026.2 |
| 20260510001241 | 12 | 301 | 3.2 | 6.4 | 0.00 | 0.33 | 0.33 | 84 | 1026.1 |
| 20260510000737 | 12 | 291 | 0.0 | 9.7 | 0.00 | 0.33 | 0.33 | 85 | 1026.0 |
| 20260510000234 | 12 | 289 | 3.2 | 6.4 | 0.00 | 0.33 | 0.33 | 84 | 1025.8 |
| 20260509235731 | 12 | 4 | 1.6 | 6.4 | 0.00 | 0.33 | 0.33 | 84 | 1025.6 |
| 20260509235227 | 12 | 342 | 1.6 | 11.3 | 0.18 | 0.33 | 0.33 | 83 | 1025.7 |
| 20260509234723 | 13 | 279 | 6.4 | 9.7 | 0.23 | 0.33 | 0.33 | 83 | 1025.5 |
| 20260509234221 | 13 | 309 | 4.8 | 11.3 | 0.05 | 0.30 | 0.30 | 82 | 1025.7 |
| 20260509233720 | 13 | 333 | 4.8 | 8.0 | 0.00 | 0.28 | 0.28 | 82 | 1025.7 |
| 20260509233217 | 13 | 2 | 3.2 | 9.7 | 0.00 | 0.28 | 0.28 | 81 | 1025.4 |
| 20260509232713 | 13 | 262 | 9.7 | 12.9 | 0.00 | 0.28 | 0.28 | 80 | 1025.5 |
| 20260509232210 | 13 | 325 | 4.8 | 12.9 | 0.00 | 0.28 | 0.28 | 79 | 1025.1 |
| 20260509231706 | 13 | 319 | 4.8 | 8.0 | 0.00 | 0.28 | 0.28 | 78 | 1025.1 |
| 20260509231203 | 13 | 336 | 3.2 | 9.7 | 0.00 | 0.28 | 0.28 | 77 | 1025.0 |
| 20260509230700 | 13 | 6 | 4.8 | 9.7 | 0.00 | 0.28 | 0.28 | 76 | 1024.9 |
| 20260509230157 | 13 | 21 | 3.2 | 9.7 | 0.00 | 0.28 | 0.28 | 75 | 1024.8 |
| 20260509225653 | 13 | 355 | 4.8 | 24.1 | 0.00 | 0.28 | 0.28 | 74 | 1024.8 |
| 20260509225148 | 13 | 306 | 8.0 | 9.7 | 0.00 | 0.28 | 0.28 | 76 | 1024.9 |
| 20260509224644 | 13 | 294 | 4.8 | 12.9 | 0.00 | 0.28 | 0.28 | 76 | 1025.0 |
| 20260509224141 | 13 | 313 | 4.8 | 9.7 | 0.00 | 0.28 | 0.28 | 77 | 1025.2 |
| 20260509223638 | 13 | 349 | 6.4 | 12.9 | 0.00 | 0.28 | 0.28 | 77 | 1025.1 |
| 20260509223135 | 13 | 359 | 8.0 | 12.9 | 0.00 | 0.28 | 0.28 | 80 | 1024.9 |
| 20260509222632 | 13 | 272 | 6.4 | 14.5 | 0.00 | 0.28 | 0.28 | 81 | 1025.1 |
| 20260509222127 | 12 | 271 | 4.8 | 9.7 | 0.00 | 0.28 | 0.28 | 81 | 1024.8 |
| 20260509221624 | 12 | 333 | 4.8 | 6.4 | 0.00 | 0.28 | 0.28 | 82 | 1024.9 |
| 20260509221120 | 12 | 310 | 6.4 | 14.5 | 0.00 | 0.28 | 0.28 | 83 | 1025.1 |
| 20260509220616 | 12 | 333 | 4.8 | 16.1 | 0.00 | 0.28 | 0.28 | 83 | 1025.1 |
| 20260509220112 | 12 | 327 | 6.4 | 16.1 | 0.00 | 0.28 | 0.28 | 82 | 1025.0 |
| 20260509215608 | 13 | 250 | 11.3 | 22.5 | 0.23 | 0.28 | 0.28 | 84 | 1025.3 |
| 20260509215105 | 13 | 292 | 9.7 | 16.1 | 0.53 | 0.28 | 0.28 | 86 | 1025.2 |
| 20260509214602 | 13 | 359 | 4.8 | 19.3 | 0.66 | 0.23 | 0.23 | 84 | 1025.2 |
| 20260509214059 | 13 | 265 | 8.0 | 24.1 | 0.66 | 0.18 | 0.18 | 80 | 1025.2 |
| 20260509213555 | 13 | 17 | 6.4 | 12.9 | 0.48 | 0.10 | 0.10 | 83 | 1025.1 |
| 20260509213052 | 14 | 320 | 6.4 | 11.3 | 0.43 | 0.08 | 0.08 | 80 | 1024.9 |
| 20260509212549 | 15 | 338 | 4.8 | 9.7 | 0.18 | 0.03 | 0.03 | 76 | 1025.1 |
| 20260509212046 | 15 | 274 | 9.7 | 14.5 | 0.00 | 0.00 | 0.00 | 72 | 1025.1 |
| 20260509211542 | 15 | 355 | 6.4 | 12.9 | 0.00 | 0.00 | 0.00 | 71 | 1025.0 |
| 20260509211039 | 15 | 139 | 6.4 | 16.1 | 0.00 | 0.00 | 0.00 | 70 | 1025.0 |
| 20260509210536 | 15 | 278 | 4.8 | 8.0 | 0.00 | 0.00 | 0.00 | 69 | 1024.9 |
| 20260509210032 | 15 | 280 | 6.4 | 16.1 | 0.00 | 0.00 | 0.00 | 69 | 1024.8 |
| 20260509205532 | 15 | 310 | 9.7 | 9.7 | 0.00 | 0.00 | 0.00 | 68 | 1024.6 |
| 20260509205027 | 15 | 234 | 8.0 | 14.5 | 0.00 | 0.00 | 0.00 | 68 | 1024.5 |
| 20260509204524 | 15 | 290 | 6.4 | 11.3 | 0.00 | 0.00 | 0.00 | 67 | 1024.2 |
| 20260509204020 | 15 | 331 | 3.2 | 11.3 | 0.00 | 0.00 | 0.00 | 68 | 1024.3 |
| 20260509203516 | 15 | 274 | 14.5 | 19.3 | 0.00 | 0.00 | 0.00 | 67 | 1024.5 |
| 20260509203015 | 15 | 0 | 9.7 | 17.7 | 0.00 | 0.00 | 0.00 | 68 | 1024.6 |
| 20260509202515 | 15 | 256 | 4.8 | 17.7 | 0.00 | 0.00 | 0.00 | 67 | 1024.7 |
| 20260509202010 | 15 | 246 | 3.2 | 11.3 | 0.00 | 0.00 | 0.00 | 67 | 1024.9 |
| 20260509201505 | 15 | 255 | 1.6 | 11.3 | 0.00 | 0.00 | 0.00 | 67 | 1024.9 |
| 20260509201003 | 15 | 129 | 6.4 | 9.7 | 0.00 | 0.00 | 0.00 | 67 | 1024.7 |
| 20260509200458 | 15 | 129 | 3.2 | 9.7 | 0.00 | 0.00 | 0.00 | 67 | 1024.8 |
| 20260509195954 | 15 | 252 | 12.9 | 14.5 | 0.00 | 0.00 | 0.00 | 68 | 1025.2 |
| 20260509195450 | 15 | 209 | 9.7 | 19.3 | 0.00 | 0.00 | 0.00 | 67 | 1025.4 |
| 20260509194949 | 15 | 310 | 3.2 | 12.9 | 0.00 | 0.00 | 0.00 | 67 | 1025.3 |
| 20260509194445 | 15 | 161 | 4.8 | 16.1 | 0.00 | 0.00 | 0.00 | 67 | 1025.5 |
| 20260509193942 | 15 | 69 | 4.8 | 11.3 | 0.00 | 0.00 | 0.00 | 66 | 1025.4 |
| 20260509193442 | 15 | 259 | 6.4 | 19.3 | 0.00 | 0.00 | 0.00 | 66 | 1025.4 |
| 20260509192938 | 15 | 340 | 4.8 | 12.9 | 0.00 | 0.00 | 0.00 | 66 | 1025.5 |
| 20260509192435 | 15 | 241 | 3.2 | 12.9 | 0.00 | 0.00 | 0.00 | 66 | 1025.7 |
| 20260509191930 | 16 | 130 | 3.2 | 20.9 | 0.00 | 0.00 | 0.00 | 65 | 1025.8 |
| 20260509191425 | 16 | 284 | 11.3 | 16.1 | 0.00 | 0.00 | 0.00 | 65 | 1025.7 |
| 20260509190922 | 16 | 254 | 14.5 | 27.4 | 0.00 | 0.00 | 0.00 | 65 | 1025.6 |
| 20260509190419 | 16 | 185 | 6.4 | 19.3 | 0.00 | 0.00 | 0.00 | 65 | 1025.5 |
| 20260509185917 | 16 | 259 | 6.4 | 27.4 | 0.00 | 0.00 | 0.00 | 65 | 1025.7 |
| 20260509185414 | 16 | 301 | 4.8 | 27.4 | 0.00 | 0.00 | 0.00 | 65 | 1025.8 |
| 20260509184910 | 16 | 237 | 8.0 | 20.9 | 0.00 | 0.00 | 0.00 | 64 | 1025.9 |
| 20260509184408 | 16 | 254 | 11.3 | 24.1 | 0.00 | 0.00 | 0.00 | 64 | 1025.8 |
| 20260509183905 | 17 | 257 | 6.4 | 11.3 | 0.00 | 0.00 | 0.00 | 64 | 1025.6 |
| 20260509183359 | 17 | 239 | 6.4 | 24.1 | 0.00 | 0.00 | 0.00 | 62 | 1025.7 |
| 20260509182855 | 17 | 296 | 12.9 | 27.4 | 0.00 | 0.00 | 0.00 | 61 | 1025.8 |
| 20260509182353 | 17 | 285 | 12.9 | 17.7 | 0.00 | 0.00 | 0.00 | 63 | 1025.7 |
| 20260509181850 | 17 | 211 | 6.4 | 24.1 | 0.00 | 0.00 | 0.00 | 63 | 1025.7 |
| 20260509181347 | 17 | 282 | 6.4 | 17.7 | 0.00 | 0.00 | 0.00 | 61 | 1025.9 |
| 20260509180845 | 18 | 298 | 9.7 | 11.3 | 0.00 | 0.00 | 0.00 | 59 | 1025.7 |
| 20260509180340 | 18 | 224 | 11.3 | 20.9 | 0.00 | 0.00 | 0.00 | 61 | 1025.8 |
| 20260509175837 | 17 | 284 | 9.7 | 16.1 | 0.00 | 0.00 | 0.00 | 61 | 1025.6 |
| 20260509175333 | 17 | 295 | 6.4 | 16.1 | 0.00 | 0.00 | 0.00 | 62 | 1026.0 |
| 20260509174829 | 17 | 320 | 12.9 | 22.5 | 0.00 | 0.00 | 0.00 | 63 | 1026.2 |
| 20260509174325 | 17 | 199 | 9.7 | 12.9 | 0.00 | 0.00 | 0.00 | 62 | 1026.2 |
| 20260509173821 | 17 | 203 | 6.4 | 30.6 | 0.00 | 0.00 | 0.00 | 61 | 1026.4 |
| 20260509173317 | 17 | 197 | 6.4 | 17.7 | 0.00 | 0.00 | 0.00 | 64 | 1026.2 |
| 20260509172813 | 17 | 160 | 6.4 | 16.1 | 0.00 | 0.00 | 0.00 | 63 | 1026.3 |
| 20260509172310 | 17 | 120 | 4.8 | 16.1 | 0.00 | 0.00 | 0.00 | 64 | 1026.6 |
| 20260509171806 | 16 | 311 | 4.8 | 14.5 | 0.00 | 0.00 | 0.00 | 66 | 1026.7 |
| 20260509171302 | 16 | 209 | 9.7 | 19.3 | 0.00 | 0.00 | 0.00 | 66 | 1026.8 |
| 20260509170759 | 16 | 200 | 8.0 | 14.5 | 0.00 | 0.00 | 0.00 | 66 | 1027.2 |
| 20260509170255 | 16 | 248 | 3.2 | 11.3 | 0.00 | 0.00 | 0.00 | 67 | 1027.2 |
| 20260509165754 | 16 | 219 | 6.4 | 17.7 | 0.00 | 0.00 | 0.00 | 65 | 1027.3 |
| 20260509165249 | 16 | 249 | 6.4 | 16.1 | 0.00 | 0.00 | 0.00 | 68 | 1027.3 |
| 20260509164745 | 15 | 268 | 4.8 | 16.1 | 0.00 | 0.00 | 0.00 | 71 | 1027.5 |
| 20260509164241 | 15 | 356 | 1.6 | 14.5 | 0.00 | 0.00 | 0.00 | 72 | 1027.3 |
| 20260509163738 | 15 | 9 | 4.8 | 14.5 | 0.00 | 0.00 | 0.00 | 71 | 1027.4 |
| 20260509163235 | 15 | 257 | 4.8 | 8.0 | 0.00 | 0.00 | 0.00 | 72 | 1027.6 |
| 20260509162733 | 15 | 174 | 6.4 | 20.9 | 0.00 | 0.00 | 0.00 | 72 | 1027.6 |
| 20260509162227 | 15 | 240 | 8.0 | 12.9 | 0.00 | 0.00 | 0.00 | 72 | 1027.5 |
| 20260509161723 | 15 | 337 | 0.0 | 14.5 | 0.00 | 0.00 | 0.00 | 72 | 1027.6 |
| 20260509161220 | 15 | 192 | 9.7 | 11.3 | 0.00 | 0.00 | 0.00 | 73 | 1027.6 |
| 20260509160715 | 14 | 350 | 1.6 | 6.4 | 0.00 | 0.00 | 0.00 | 75 | 1027.8 |
| 20260509160211 | 14 | 287 | 6.4 | 11.3 | 0.00 | 0.00 | 0.00 | 73 | 1027.8 |
| 20260509155706 | 15 | 242 | 6.4 | 9.7 | 0.00 | 0.00 | 0.00 | 73 | 1028.1 |
| 20260509155203 | 14 | 35 | 3.2 | 12.9 | 0.00 | 0.00 | 0.00 | 76 | 1028.1 |
| 20260509154659 | 13 | 255 | 4.8 | 12.9 | 0.00 | 0.00 | 0.00 | 78 | 1028.1 |
| 20260509154157 | 13 | 335 | 6.4 | 11.3 | 0.00 | 0.00 | 0.00 | 78 | 1028.3 |
| 20260509153653 | 13 | 269 | 6.4 | 8.0 | 0.00 | 0.00 | 0.00 | 78 | 1028.5 |
| 20260509153150 | 13 | 10 | 4.8 | 9.7 | 0.00 | 0.00 | 0.00 | 79 | 1028.3 |
| 20260509152646 | 13 | 353 | 4.8 | 9.7 | 0.00 | 0.00 | 0.00 | 80 | 1028.5 |
| 20260509152143 | 12 | 60 | 3.2 | 9.7 | 0.00 | 0.00 | 0.00 | 81 | 1028.4 |
| 20260509151639 | 12 | 312 | 4.8 | 9.7 | 0.00 | 0.00 | 0.00 | 82 | 1028.5 |
| 20260509151137 | 12 | 294 | 4.8 | 14.5 | 0.00 | 0.00 | 0.00 | 82 | 1028.7 |
| 20260509150635 | 12 | 328 | 1.6 | 3.2 | 0.00 | 0.00 | 0.00 | 83 | 1028.8 |
| 20260509150133 | 12 | 162 | 6.4 | 6.4 | 0.00 | 0.00 | 0.00 | 82 | 1028.6 |
| 20260509145629 | 11 | 10 | 3.2 | 6.4 | 0.00 | 0.00 | 0.00 | 83 | 1028.3 |
| 20260509145124 | 11 | 258 | 3.2 | 8.0 | 0.00 | 0.00 | 0.00 | 83 | 1028.4 |
| 20260509144621 | 11 | 256 | 3.2 | 11.3 | 0.00 | 0.00 | 0.00 | 82 | 1028.4 |
| 20260509144118 | 11 | 182 | 3.2 | 8.0 | 0.00 | 0.00 | 0.00 | 82 | 1028.6 |
| 20260509143615 | 12 | 325 | 3.2 | 19.3 | 0.00 | 0.00 | 0.00 | 81 | 1028.8 |
| 20260509143114 | 12 | 323 | 4.8 | 16.1 | 0.00 | 0.00 | 0.00 | 80 | 1028.7 |
| 20260509142614 | 12 | 288 | 6.4 | 9.7 | 0.00 | 0.00 | 0.00 | 80 | 1028.7 |
| 20260509142110 | 12 | 172 | 4.8 | 17.7 | 0.00 | 0.00 | 0.00 | 79 | 1028.8 |
| 20260509141606 | 12 | 253 | 3.2 | 6.4 | 0.00 | 0.00 | 0.00 | 79 | 1029.0 |
| 20260509141103 | 12 | 356 | 4.8 | 8.0 | 0.00 | 0.00 | 0.00 | 78 | 1028.9 |
| 20260509140600 | 12 | 356 | 4.8 | 6.4 | 0.00 | 0.00 | 0.00 | 78 | 1028.7 |
| 20260509140058 | 12 | 304 | 4.8 | 8.0 | 0.00 | 0.00 | 0.00 | 76 | 1028.8 |
| 20260509135555 | 12 | 307 | 6.4 | 9.7 | 0.00 | 0.00 | 0.00 | 74 | 1028.9 |
| 20260509135053 | 12 | 105 | 3.2 | 6.4 | 0.00 | 0.00 | 0.00 | 73 | 1028.9 |
| 20260509134549 | 12 | 291 | 8.0 | 8.0 | 0.00 | 0.00 | 0.00 | 70 | 1028.9 |
| 20260509134047 | 12 | 326 | 3.2 | 8.0 | 0.00 | 0.00 | 0.00 | 71 | 1028.8 |
| 20260509133543 | 12 | 324 | 4.8 | 14.5 | 0.00 | 0.00 | 0.00 | 72 | 1029.0 |
| 20260509133041 | 12 | 0 | 6.4 | 12.9 | 0.00 | 0.00 | 0.00 | 72 | 1029.1 |
| 20260509132539 | 12 | 341 | 4.8 | 9.7 | 0.00 | 0.00 | 0.00 | 70 | 1029.1 |